Starlink 4021

operational
NORAD ID: 53149 Int'l Des: 2022-083 Owner: SPXS Country: US Constellation: starlink
LEOCIRCULAR

About Starlink 4021

Description loading...

Live Position

Loading 3D Globe...

Upcoming Passes

Altitude History

Altitude vs Time

uPlot chart will show altitude changes over time

Two-Line Element Set

1 53149U 22083T 25296.34249544 -.00007005 00000-0 -42210-3 0 9992
2 53149 53.2196 60.8980 0003431 80.8866 279.2514 15.08860573180628
Epoch: Oct 23, 2025 • Age: 30 hours

Current Status

Altitude 539.0 km
Velocity 7.60 km/s
Sub-Earth Point 12.19°N, 173.85°E
Launch Date Jul 17, 2022
Age 3.2 years
Type internet

Technical Details

Classification Payload
Mass 297.00 kg
Dry Mass 275.00 kg
Total Mass 297.00 kg
Length 0.20 m
Diameter 2.80 m
Span 9.00 m
Shape Box + pan
Manufacturer SPXS
Bus Type Starlink
Phase Status In Orbit
Owner/State SPXS/US

Large Constellations

Loading constellations...